Regional Weather Roundup
Issued by NWS

Home | Current Version | Previous Version | Text Only | Print | Product List | Glossary Off
Versions: 1 2 3 4 5 6 7 8 9 10 11 12 13 14 15 16 17 18 19 20 21 22 23 24 25 26 27 28 29 30 31 32 33 34 35 36 37 38 39 40 41 42 43 44 45 46 47 48 49 50

000
ASUS43 KMKX 290900
RWRWI

WISCONSIN REGIONAL WEATHER ROUNDUP
NATIONAL WEATHER SERVICE MILWAUKEE/SULLIVAN WI
400 AM CDT SUN MAY 29 2016

NOTE: "FAIR" INDICATES FEW OR NO CLOUDS BELOW 12,000 FEET WITH NO
SIGNIFICANT WEATHER AND/OR OBSTRUCTIONS TO VISIBILITY.

WIZ001-002-006>008-014>016-023>028-291000-
NORTHWEST WISCONSIN

CITY           SKY/WX    TMP DP  RH WIND       PRES   REMARKS
SUPERIOR ARPT  FOG       52  52 100 CALM      29.80S VSB 1/2
ASHLAND        CLOUDY    53  52  96 SW3       29.79S FOG
HAYWARD        CLOUDY    58  57  97 CALM      29.81S FOG
SIREN          CLOUDY    60  59  97 CALM      29.81S
CUMBERLAND     CLOUDY    59  59 100 W6        29.82S
RICE LAKE      CLOUDY    61  59  94 CALM      29.83S
CHETEK         CLOUDY    61  61 100 W3        29.82S
LADYSMITH      CLOUDY    62  61  97 SW7       29.83S FOG
EAU CLAIRE     RAIN      60  60 100 SW5       29.81F FOG
MENOMONIE      CLOUDY    62  62  99 W3        29.82F FOG
NEW RICHMOND   CLOUDY    61  61 100 W3        29.83S
OSCEOLA        CLOUDY    61  61 100 W3        29.85S
$$

WIZ003>005-009-010-017-018-291000-
NORTH CENTRAL WISCONSIN

CITY           SKY/WX    TMP DP  RH WIND       PRES   REMARKS
MANITOWISH WTR NOT AVBL
ARBOR VITAE    MOCLDY    62  60  94 SW5       29.81S
WOODRUFF       MOCLDY    62  60  94 SW5       29.81S
RHINELANDER    MOCLDY    61  59  93 SW10      29.83S
EAGLE RIVER    LGT RAIN  62  62  99 SW9       29.81S
LAND O LAKES   CLOUDY    63  62  99 S3        29.81F
PHILLIPS       CLOUDY    60  60 100 SW8       29.81S
TOMAHAWK       PTCLDY    59  57  94 CALM      29.83S
MEDFORD        CLEAR     58  58 100 SW6       29.83S
MERRILL        MOCLDY   N/A N/A N/A SW7       29.84R
$$

WIZ029-030-035-036-043>047-291000-
CENTRAL WISCONSIN

CITY           SKY/WX    TMP DP  RH WIND       PRES   REMARKS
WAUSAU         CLOUDY    65  61  87 SW9       29.82S
MOSINEE        CLOUDY    61  61 100 S5        29.85S
MARSHFIELD     CLOUDY    62  60  93 SW6       29.83S
STEVENS POINT  MOCLDY    62  60  95 S7        29.85S
WAUPACA        CLEAR     64  64  98 S3        29.85S
WAUTOMA        PTCLDY    63  62  97 S3        29.85F
WISC RAPIDS    CLOUDY    64  60  87 VRB6      29.85S
CAMP DOUGLAS   NOT AVBL
$$

WIZ011>013-019>022-031-037>040-048>050-291000-
NORTHEAST WISCONSIN

CITY           SKY/WX    TMP DP  RH WIND       PRES   REMARKS
ANTIGO         CLOUDY    62  61  97 SW9       29.85R
SHAWANO        MOCLDY    65  62  90 SW5       29.84S
OCONTO         CLEAR    N/A N/A N/A S3        29.83S
STURGEON BAY   NOT AVBL
GREEN BAY      CLOUDY    65  62  90 S7        29.85S
MANITOWOC      NOT AVBL
APPLETON       PTCLDY    63  63 100 S8        29.84S
CLINTONVILLE   PTCLDY    63  61  94 SW6       29.84S
OSHKOSH        CLOUDY    64  61  90 S6        29.86S
$$

WIZ032>034-041-042-053>061-291000-
SOUTHWEST WISCONSIN

CITY           SKY/WX    TMP DP  RH WIND       PRES   REMARKS
LA CROSSE      CLOUDY    64  60  87 S7        29.82F
SPARTA         MOCLDY    62  61  96 CALM      29.84F
VIROQUA        CLOUDY    62  60  94 S7        29.86S
BOSCOBEL       CLOUDY    64  61  90 W3        29.85F
PRAIRIE DU CHI CLOUDY    64  58  80 SW7       29.85S
PLATTEVILLE    PTCLDY    63  61  92 SW10      29.89S
$$

WIZ056-057-062-063-064-067-068-291000-
SOUTH CENTRAL WISCONSIN

CITY           SKY/WX    TMP DP  RH WIND       PRES   REMARKS
REEDSBURG      PTCLDY    62  61  97 S8        29.86S
BARABOO/DELLS  CLEAR     62  58  86 SW7       29.87S
LONE ROCK      NOT AVBL
MINERAL POINT  CLEAR     63  61  94 S9        29.89S
MADISON        CLEAR     65  59  81 VRB5      29.87F
MIDDLETON      CLEAR     64  60  85 SW6       29.88F
WATERTOWN      PTCLDY    64  62  94 SW6       29.89S
MONROE         CLEAR     63  59  88 S9        29.90F
JANESVILLE     CLEAR     64  61  88 S7        29.90F
$$

WIZ051-052-058>065-066-070>072-291000-
SOUTHEAST WISCONSIN

CITY           SKY/WX    TMP DP  RH WIND       PRES   REMARKS
MILWAUKEE      PTCLDY    64  62  93 S8        29.91S
WAUKESHA       CLEAR     63  61  94 S3        29.92S
MILWAUKEE/TIMM PTCLDY    63  59  88 S6        29.91S
RACINE         PTCLDY    64  61  90 SW8       29.93F
BURLINGTON     CLEAR     62  62  99 S5        29.92S
KENOSHA        MOCLDY    63  61  93 SW6       29.93S
FOND DU LAC    CLOUDY    65  62  90 S9        29.87S
SHEBOYGAN      PTCLDY    61  60  97 S6        29.88S
WEST BEND      PTCLDY    63  61  94 S5        29.89S
JUNEAU         PTCLDY    64  62  94 S8        29.89F
$$

LSZ147-162-291000-
LAKE SUPERIOR

STATION/POSITION TIME  TEMP    WIND        PRES    WAVE
                       AIR SEA DIR/SP/G            HT/PER
                 (UTC) (F)     (DEG/KT/KT) (MB)    (FT/S)
W MID LAKE BUOY  0750   40 38   10/  6/  8 1009.0F   1/ 3
DEVILS ISLAND    0800   45      10/  3/  3 1009.4F
SAXON HARBOR     0800   51        CALM     1008.8S
$$

LMZ867-665-643>646-291000-
LAKE MICHIGAN

STATION/POSITION TIME  TEMP    WIND        PRES    WAVE
                       AIR SEA DIR/SP/G            HT/PER
                 (UTC) (F)     (DEG/KT/KT) (MB)    (FT/S)
CHAMBERS ISLAND  0800   63     160/  3/  9 1010.5F
N MID LAKE BUOY  0750   50 46  200/ 10/ 12 1011.0F   3/ 5
NORTHPORT PIER   0800   60     150/  6/ 10 1010.8S
SISTER BAY       0805   62     150/ 11/ 15   N/A
ALGOMA LAKESHORE 0817          200/  1/  4   N/A
KEWAUNEE LAKESHO 0800   51     180/ 10/ 11 1010.6S
SHEBOYGAN LAKESH 0800   60     190/ 12/ 13 1012.3R
PORT WASHINGTON  0840   54     240/  1/  2 1013.2R
S MID LAKE BUOY  0750   54 50  170/  8/ 10 1013.3F   1/ 4
KENOSHA   LAKESH 0800   66     210/  7/ 11 1013.2S
$$

TC  - TEMPERATURE IN CELSIUS
VSB - VISIBILITY IN STATUTE MILES
WCI - WIND CHILL INDEX
HX  - HEAT INDEX





USA.gov is the U.S. government's official web portal to all federal, state and local government web resources and services.